Regional Weather Roundup
Issued by NWS

Home | Current Version | Previous Version | Graphics & Text | Print | Product List | Glossary On
Versions: 1 2 3 4 5 6 7 8 9 10 11 12 13 14 15 16 17 18 19 20 21 22 23 24 25 26 27 28 29 30 31 32 33 34 35 36 37 38 39 40 41 42 43 44 45 46 47 48 49 50
000
ASUS45 KABQ 300001
RWRNM
WEATHER ROUNDUP FOR NEW MEXICO
NATIONAL WEATHER SERVICE ALBUQUERQUE NM
500 PM MST THU JAN 29 2015

NOTE: "FAIR" MEANS FEW OR NO CLOUDS BELOW 12,000 FEET AGL WITH NO
       SIGNIFICANT WEATHER OR OBSTRUCTIONS TO VISION.

      THIS PRODUCT IS RELEASED AS TWO VERSIONS.  ONE VERSION NEAR
      THE TOP OF THE HOUR CONTAINING PRELIMINARY DATA FROM ALBUQUERQUE
      AND OTHER STATIONS.  A FINAL VERSION WITH ADDITIONAL DATA IS
      ISSUED ABOUT 10 MINUTES AFTER THE HOUR.

NMZ501-503-504-510>518-300100-
NORTHWEST PLATEAU/NORTHCENTRAL MOUNTAINS

CITY           SKY/WX    TMP DP  RH WIND       PRES   REMARKS
FARMINGTON     CLOUDY    50  27  40 SE12      30.29S
6HR MIN TEMP:  43; 6HR MAX TEMP:  54;

SANTA FE       CLOUDY    43  22  43 SE15G24   30.40S
6HR MIN TEMP:  43; 6HR MAX TEMP:  49;

TAOS           CLOUDY    43  28  56 S6        30.40S

$$
NMZ402-403-502-505>509-300100-
WESTCENTRAL MOUNTAINS/SOUTHWEST MOUNTAINS

CITY           SKY/WX    TMP DP  RH WIND       PRES   REMARKS
GALLUP         CLOUDY    50  29  44 E14       30.26S
6HR MIN TEMP:  47; 6HR MAX TEMP:  54;

SILVER CITY    CLOUDY    54  32  43 E17       30.29R

$$
NMZ407-409-411-412-300100-
SOUTHERN DESERTS

CITY           SKY/WX    TMP DP  RH WIND       PRES   REMARKS
DEMING         CLOUDY    57  31  37 E18G26    30.25R
6HR MIN TEMP:  57; 6HR MAX TEMP:  63;

HOLLOMAN AFB   CLOUDY    58  36  43 SW6       30.29R
ALAMOGORDO     CLOUDY    55  39  54 CALM      30.30S
T OR C         CLOUDY    54  30  40 N13G22    30.28S
6HR MIN TEMP:  52; 6HR MAX TEMP:  59;


$$
NMZ519>523-300100-
CENTRAL VALLEYS/CENTRAL HIGHLANDS

CITY           SKY/WX    TMP DP  RH WIND       PRES   REMARKS
ALBUQUERQUE    CLOUDY    48  23  37 E23       30.37S
6HR MIN TEMP:  48; 6HR MAX TEMP:  53;

DOUBLE EAGLE   CLOUDY    45  21  39 E17G29    30.38S
MORIARTY ARPT  FAIR      41  22  46 E14       30.46R
6HR MIN TEMP:  41; 6HR MAX TEMP:  46;

CLINES CORNERS CLOUDY    36  20  52 E18G26    30.43R WCI  26
6HR MIN TEMP:  36; 6HR MAX TEMP:  40;

BELEN          MOCLDY    50  25  38 SE12      30.35S
6HR MIN TEMP:  50; 6HR MAX TEMP:  56;

SOCORRO        NOT AVBL

$$
NMZ524>526-539-540-300100-
SOUTHCENTRAL MOUNTAINS

CITY           SKY/WX    TMP DP  RH WIND       PRES   REMARKS
RUIDOSO        NOT AVBL

$$
NMZ527>531-300100-
NORTHEAST HIGHLANDS/NORTHEAST PLAINS

CITY           SKY/WX    TMP DP  RH WIND       PRES   REMARKS
LAS VEGAS      CLOUDY    37  18  46 SE6       30.48R WCI  32
6HR MIN TEMP:  37; 6HR MAX TEMP:  40;

RATON          CLOUDY    40  26  57 SW8       30.44S WCI  34
6HR MIN TEMP:  40; 6HR MAX TEMP:  43;

CLAYTON        CLOUDY    44  24  45 NE6       30.46F
6HR MIN TEMP:  44; 6HR MAX TEMP:  48;


$$
NMZ532>537-300100-
EASTCENTRAL PLAINS

CITY           SKY/WX    TMP DP  RH WIND       PRES   REMARKS
TUCUMCARI      CLOUDY    46  27  47 E3        30.47
6HR MIN TEMP:  46; 6HR MAX TEMP:  49;

CANNON AFB     CLOUDY    45  22  40 NE8       30.47R
6HR MIN TEMP:  45; 6HR MAX TEMP:  50;

CLOVIS AIRPORT CLOUDY    45  23  42 NE9       30.47R

$$
NMZ028-029-538-300100-
SOUTHEAST PLAINS

CITY           SKY/WX    TMP DP  RH WIND       PRES   REMARKS
ROSWELL        CLOUDY    54  29  38 NE7       30.43R
6HR MIN TEMP:  53; 6HR MAX TEMP:  58;

ARTESIA        CLOUDY    54  30  40 E5        30.45R
CARLSBAD       CLOUDY    55  31  39 NE7       30.41R
6HR MIN TEMP:  55; 6HR MAX TEMP:  60;

HOBBS          MOCLDY    52  25  35 NE15      30.43R


$$


USA.gov is the U.S. government's official web portal to all federal, state and local government web resources and services.